| time (UTC) | temp F | wind direction | speed MPH | gust MPH | rain 1hr in | rain 24hr in | rain mn in | humidity % | barometer mb |
| 20260503030048 | 49 | 37 | 0.0 | 0.0 | 0.00 | 0.00 | 0.00 | 91 | 1025.7 |
| 20260503024547 | 49 | 37 | 0.0 | 0.0 | 0.00 | 0.00 | 0.00 | 91 | 1025.7 |
| 20260503023046 | 49 | 37 | 0.0 | 0.0 | 0.00 | 0.00 | 0.00 | 91 | 1025.7 |
| 20260503021548 | 49 | 37 | 0.0 | 0.0 | 0.00 | 0.00 | 0.00 | 91 | 1025.7 |
| 20260503020056 | 49 | 37 | 0.0 | 0.0 | 0.00 | 0.00 | 0.00 | 90 | 1025.7 |
| 20260503014552 | 49 | 37 | 0.0 | 0.0 | 0.00 | 0.00 | 0.00 | 91 | 1025.7 |
| 20260503013044 | 49 | 37 | 0.0 | 0.0 | 0.00 | 0.00 | 0.00 | 90 | 1025.7 |
| 20260503011548 | 49 | 37 | 0.0 | 0.0 | 0.00 | 0.00 | 0.00 | 90 | 1025.7 |
| 20260503010042 | 50 | 37 | 0.0 | 0.0 | 0.00 | 0.00 | 0.00 | 90 | 1025.7 |
| 20260503004541 | 50 | 37 | 0.0 | 0.0 | 0.00 | 0.00 | 0.00 | 90 | 1025.7 |
| 20260503003041 | 50 | 37 | 0.0 | 0.0 | 0.00 | 0.00 | 0.00 | 90 | 1025.7 |
| 20260503001540 | 50 | 37 | 0.0 | 0.0 | 0.00 | 0.00 | 0.00 | 90 | 1025.7 |
| 20260503000056 | 50 | 37 | 0.0 | 0.0 | 0.00 | 0.00 | 0.00 | 89 | 1025.7 |
| 20260502234540 | 51 | 37 | 0.0 | 0.0 | 0.00 | 0.00 | 0.00 | 88 | 1025.7 |
| 20260502233040 | 51 | 37 | 0.0 | 0.0 | 0.00 | 0.00 | 0.00 | 87 | 1025.7 |
| 20260502231547 | 52 | 37 | 0.0 | 0.0 | 0.00 | 0.00 | 0.00 | 85 | 1025.7 |
| 20260502230038 | 53 | 37 | 0.0 | 0.0 | 0.00 | 0.00 | 0.00 | 83 | 1025.7 |
| 20260502224538 | 53 | 37 | 0.0 | 0.0 | 0.00 | 0.00 | 0.00 | 80 | 1025.7 |
| 20260502223038 | 54 | 37 | 0.0 | 0.0 | 0.00 | 0.00 | 0.00 | 78 | 1025.7 |
| 20260502221538 | 55 | 12 | 0.0 | 5.0 | 0.00 | 0.00 | 0.00 | 75 | 1025.7 |
| 20260502220046 | 55 | 248 | 0.0 | 0.0 | 0.00 | 0.00 | 0.00 | 69 | 1025.7 |
| 20260502214536 | 55 | 243 | 0.0 | 1.0 | 0.00 | 0.00 | 0.00 | 68 | 1025.7 |
| 20260502213036 | 56 | 257 | 1.0 | 6.0 | 0.00 | 0.00 | 0.00 | 68 | 1025.7 |
| 20260502211536 | 57 | 237 | 0.0 | 5.0 | 0.00 | 0.00 | 0.00 | 68 | 1025.7 |
| 20260502210032 | 57 | 312 | 0.0 | 5.0 | 0.00 | 0.00 | 0.00 | 67 | 1025.7 |
| 20260502204530 | 57 | 248 | 0.0 | 4.0 | 0.00 | 0.00 | 0.00 | 65 | 1025.7 |
| 20260502203028 | 56 | 171 | 0.0 | 4.0 | 0.00 | 0.00 | 0.00 | 64 | 1025.7 |
| 20260502201530 | 56 | 262 | 0.0 | 6.0 | 0.00 | 0.00 | 0.00 | 71 | 1025.7 |
| 20260502200026 | 56 | 262 | 0.0 | 5.0 | 0.00 | 0.00 | 0.00 | 71 | 1025.7 |
| 20260502194525 | 56 | 241 | 0.0 | 4.0 | 0.00 | 0.00 | 0.00 | 71 | 1025.7 |
| 20260502193024 | 56 | 248 | 0.0 | 7.0 | 0.00 | 0.00 | 0.00 | 71 | 1025.7 |
| 20260502191522 | 55 | 358 | 0.0 | 5.0 | 0.00 | 0.00 | 0.00 | 74 | 1025.7 |
| 20260502190027 | 55 | 235 | 0.0 | 5.0 | 0.00 | 0.00 | 0.00 | 76 | 1025.7 |
| 20260502184521 | 56 | 266 | 1.0 | 7.0 | 0.00 | 0.00 | 0.00 | 76 | 1025.7 |
| 20260502183021 | 56 | 250 | 0.0 | 5.0 | 0.00 | 0.00 | 0.00 | 75 | 1025.7 |
| 20260502181520 | 56 | 251 | 0.0 | 2.0 | 0.00 | 0.00 | 0.00 | 76 | 1025.7 |
| 20260502163024 | 54 | 278 | 0.0 | 4.0 | 0.00 | 0.00 | 0.00 | 79 | 1025.7 |
| 20260502161517 | 55 | 281 | 0.0 | 0.0 | 0.00 | 0.00 | 0.00 | 79 | 1025.7 |
| 20260502151504 | 52 | 131 | 0.0 | 1.0 | 0.00 | 0.00 | 0.00 | 83 | 1025.7 |
| 20260502130104 | 46 | 104 | 0.0 | 0.0 | 0.00 | 0.00 | 0.00 | 88 | 1025.7 |
| 20260502123109 | 46 | 108 | 0.0 | 0.0 | 0.00 | 0.00 | 0.00 | 89 | 1025.7 |
| 20260502121538 | 46 | 108 | 0.0 | 0.0 | 0.00 | 0.00 | 0.00 | 89 | 1025.7 |
| 20260502114540 | 46 | 108 | 0.0 | 0.0 | 0.00 | 0.00 | 0.00 | 87 | 1025.7 |
| 20260502113037 | 47 | 108 | 0.0 | 0.0 | 0.00 | 0.00 | 0.00 | 87 | 1025.7 |
| 20260502111534 | 46 | 108 | 0.0 | 0.0 | 0.00 | 0.00 | 0.00 | 87 | 1025.7 |
| 20260502110044 | 45 | 108 | 0.0 | 0.0 | 0.00 | 0.00 | 0.00 | 88 | 1025.7 |
| 20260502104529 | 45 | 108 | 0.0 | 0.0 | 0.00 | 0.00 | 0.00 | 88 | 1025.7 |
| 20260502103032 | 44 | 108 | 0.0 | 0.0 | 0.00 | 0.00 | 0.00 | 87 | 1025.7 |
| 20260502101526 | 45 | 108 | 0.0 | 0.0 | 0.00 | 0.00 | 0.00 | 87 | 1025.7 |
| 20260502091521 | 44 | 108 | 0.0 | 0.0 | 0.00 | 0.00 | 0.00 | 88 | 1025.7 |
| 20260502071512 | 42 | 108 | 0.0 | 0.0 | 0.00 | 0.00 | 0.00 | 88 | 1025.7 |
| 20260502070012 | 42 | 108 | 0.0 | 0.0 | 0.00 | 0.00 | 0.00 | 87 | 1025.7 |
| 20260502064511 | 42 | 108 | 0.0 | 0.0 | 0.00 | 0.00 | 0.00 | 87 | 1025.7 |
| 20260502063011 | 41 | 108 | 0.0 | 0.0 | 0.00 | 0.00 | 0.00 | 87 | 1025.7 |
| 20260502061507 | 41 | 108 | 0.0 | 0.0 | 0.00 | 0.00 | 0.00 | 85 | 1025.7 |
| 20260502060005 | 42 | 108 | 0.0 | 0.0 | 0.00 | 0.00 | 0.00 | 84 | 1025.7 |
| 20260502054505 | 42 | 108 | 0.0 | 0.0 | 0.00 | 0.00 | 0.00 | 84 | 1025.7 |
| 20260502053003 | 43 | 108 | 0.0 | 0.0 | 0.00 | 0.00 | 0.00 | 83 | 1025.7 |
| 20260502051503 | 43 | 108 | 0.0 | 0.0 | 0.00 | 0.00 | 0.00 | 82 | 1025.7 |
| 20260502050003 | 43 | 108 | 0.0 | 0.0 | 0.00 | 0.00 | 0.00 | 81 | 1025.7 |
| 20260502044601 | 44 | 108 | 0.0 | 0.0 | 0.00 | 0.00 | 0.00 | 81 | 1025.7 |
| 20260502043117 | 43 | 108 | 0.0 | 0.0 | 0.00 | 0.00 | 0.00 | 82 | 1025.7 |
| 20260502041558 | 43 | 108 | 0.0 | 0.0 | 0.00 | 0.00 | 0.00 | 83 | 1025.7 |
| 20260502040105 | 42 | 108 | 0.0 | 0.0 | 0.00 | 0.00 | 0.00 | 84 | 1025.7 |
| 20260502034602 | 42 | 108 | 0.0 | 0.0 | 0.00 | 0.00 | 0.00 | 82 | 1025.7 |
| 20260502033056 | 42 | 108 | 0.0 | 0.0 | 0.00 | 0.00 | 0.00 | 80 | 1025.7 |
| 20260502031551 | 43 | 108 | 0.0 | 0.0 | 0.00 | 0.00 | 0.00 | 79 | 1025.7 |